This demonstration page uses our WeatherBlox Daily Observations layout. Learn more.

Left ArrowRight Arrow

38.20091, -84.87328

Hourly Observations for January 8, 2016

Temp ( °F °C ) Dew Point ( °F °C ) Humidity (%) Winds ( mph kmh ) Pressure ( in mb ) Visibility ( mi km ) Precip ( " mm )
12:53 am 00:53 Cloudy 43 6.1 33 0.6 68 68 ENE 3 6 29.98 1015 10 16 0.00 0.00
1:53 am 01:53 Cloudy 43 6.1 35 1.7 74 74 Calm 29.96 1015 10 16 0.00 0.03
2:53 am 02:53 Cloudy with Light Rain 42 5.6 38 3.3 85 85 S 5 7 29.97 1015 10 16 0.02 0.51
3:53 am 03:53 Cloudy 43 6.1 39 3.9 86 86 E 5 7 29.94 1014 10 16 0.02 0.51
4:53 am 04:53 Cloudy with Light Rain 43 6.1 40 4.4 89 89 Calm 29.93 1014 9 14 0.02 0.51
5:53 am 05:53 Cloudy with Light Rain 43 6.1 40 4.4 89 89 E 3 6 29.93 1014 7 11 0.05 1.27
6:53 am 06:53 Cloudy with Light Rain 43 6.1 41 5 93 93 ENE 3 6 29.92 1013 8 13 0.02 0.51
7:16 am 07:16 Cloudy with Rain 43 6.1 41 5 93 93 SE 3 6 29.94 1014 4 6 0.03 0.76
7:26 am 07:26 Cloudy with Rain 43 6.1 41 5 93 93 Calm 29.94 1014 3 4 0.05 1.27
7:33 am 07:33 Cloudy with Rain 43 6.1 42 5.6 97 97 Calm 29.94 1014 3 5 0.07 1.78
7:53 am 07:53 Cloudy with Light Rain 44 6.7 42 5.6 93 93 SE 5 7 29.92 1013 7 11 0.08 2.03
8:18 am 08:18 Cloudy 45 7.2 43 6.1 93 93 SE 6 9 29.94 1014 10 16 0.01 0.25
8:53 am 08:53 Cloudy with Light Rain 46 7.8 43 6.1 89 89 SSE 8 13 29.91 1013 9 14 0.02 0.51
9:53 am 09:53 Cloudy 47 8.3 44 6.7 90 90 SSE 9 15 29.92 1013 8 13 0.01 0.25
10:10 am 10:10 Cloudy with Light Rain 47 8.3 45 7.2 93 93 SSE 10 17 29.94 1014 4 6 0.01 0.25
10:25 am 10:25 Cloudy with Light Rain 47 8.3 45 7.2 93 93 SSE 9 15 29.94 1014 3 4 0.04 1.02
10:35 am 10:35 Cloudy with Light Rain 48 8.9 45 7.2 89 89 S 9 15 29.91 1013 3 5 0.05 1.27
10:42 am 10:42 Cloudy with Light Rain 48 8.9 45 7.2 89 89 SSE 12 19 29.91 1013 4 6 0.05 1.27
10:53 am 10:53 Cloudy 48 8.9 46 7.8 93 93 S 8 13 29.92 1013 10 16 0.05 1.27
11:53 am 11:53 Cloudy 50 10 47 8.3 89 89 S 7 11 29.90 1013 10 16 0.01 0.25
12:19 pm 12:19 Cloudy 50 10 48 8.9 93 93 S 8 13 29.88 1012 10 16 0.00 0.00
12:49 pm 12:49 Cloudy 52 11 48 9 88 88 SSW 12 19 29.88 1012 10 16 0.00 0.00
12:53 pm 12:53 Cloudy 52 11.1 48 8.9 86 86 SSW 13 20 29.87 1012 10 16 0.00 0.00
1:53 pm 13:53 Cloudy 53 11.7 49 9.4 86 86 SSW 10 17 29.86 1011 10 16 0.00 0.00
2:53 pm 14:53 Cloudy 53 11.7 48 8.9 83 83 SSW 10 17 29.85 1011 10 16 0.00 0.00
3:53 pm 15:53 Cloudy 53 11.7 48 8.9 83 83 SSW 12 19 29.86 1011 10 16 0.00 0.00
4:53 pm 16:53 Cloudy 53 11.7 48 8.9 83 83 SSW 10 17 29.87 1011 10 16 0.00 0.00
5:18 pm 17:18 Cloudy 53 11.7 48 8.9 83 83 S 9 15 29.88 1012 10 16 0.00 0.00
5:53 pm 17:53 Cloudy 52 11.1 48 8.9 86 86 SSW 12 19 29.88 1012 10 16 0.00 0.00
6:53 pm 18:53 Cloudy 52 11.1 48 8.9 86 86 S 7 11 29.89 1012 10 16 0.00 0.00
7:53 pm 19:53 Cloudy 52 11.1 47 8.3 83 83 S 7 11 29.89 1012 10 16 0.00 0.00
8:53 pm 20:53 Cloudy 50 10 47 8.3 89 89 SSE 9 15 29.90 1012 10 16 0.00 0.00
9:53 pm 21:53 Cloudy 51 10.6 47 8.3 86 86 S 5 7 29.89 1012 10 16 0.00 0.00
10:53 pm 22:53 Mostly Cloudy 50 10 46 7.8 86 86 S 9 15 29.90 1013 10 16 0.00 0.00
11:53 pm 23:53 Mostly Clear 49 9.4 45 7.2 86 86 S 7 11 29.90 1013 10 16 0.00 0.00

Powered by AerisWeather